When you browse on this site, cookies collect data to enhance your experience and personalize the content and advertising you see.
Visit our Privacy Policy to learn more. By continuing to use the site, you agree to this use of cookies and data.
  • Em Portugal
  • Lista de países
  • Para 7 dias
  • Temperatura da água
  • Mapas de satélite
  • Mapa do tempo
  • Widgets de tempo
  • user-avatar
    Iniciar Sessão

    Previsão horária em Calguri

    Hoje, 22 Maio, Quarta-feira

    Tempo Temperatura Precipitação Vento Pressão Humidade
    00:00 +17°C° 0 mm 3 m/s 735 mmHg 67%
    01:00 +17°C° 0 mm 3 m/s 735 mmHg 68%
    02:00 +17°C° 0 mm 3 m/s 735 mmHg 70%
    03:00 +16°C° 0 mm 3 m/s 735 mmHg 71%
    04:00 +16°C° 0 mm 3 m/s 735 mmHg 72%
    05:00 +16°C° 0 mm 3 m/s 735 mmHg 72%
    06:00 +15°C° 0 mm 4 m/s 735 mmHg 69%
    07:00 +17°C° 0 mm 4 m/s 735 mmHg 66%
    08:00 +16°C° 0 mm 5 m/s 735 mmHg 62%
    09:00 +19°C° 0 mm 5 m/s 735 mmHg 52%
    10:00 +21°C° 0 mm 6 m/s 735 mmHg 42%
    11:00 +24°C° 0 mm 6 m/s 735 mmHg 32%
    12:00 +26°C° 0 mm 6 m/s 734 mmHg 28%
    13:00 +27°C° 0 mm 6 m/s 733 mmHg 24%
    14:00 +28°C° 0 mm 6 m/s 733 mmHg 20%
    15:00 +27°C° 0 mm 5 m/s 733 mmHg 22%
    16:00 +26°C° 0 mm 3 m/s 732 mmHg 23%
    17:00 +25°C° 0 mm 2 m/s 732 mmHg 24%
    18:00 +24°C° 0 mm 2 m/s 732 mmHg 25%
    19:00 +24°C° 0 mm 2 m/s 732 mmHg 26%
    20:00 +23°C° 0 mm 2 m/s 733 mmHg 26%
    21:00 +21°C° 0 mm 2 m/s 733 mmHg 27%
    22:00 +21°C° 0 mm 3 m/s 733 mmHg 28%
    23:00 +20°C° 0 mm 3 m/s 733 mmHg 29%

    Amanhã, 23 Maio, Quinta-feira

    Tempo Temperatura Precipitação Vento Pressão Humidade
    00:00 +20°C° 0 mm 3 m/s 733 mmHg 34%
    01:00 +19°C° 0 mm 3 m/s 733 mmHg 38%
    02:00 +18°C° 0 mm 3 m/s 733 mmHg 43%
    03:00 +17°C° 0 mm 3 m/s 733 mmHg 51%
    04:00 +15°C° 0 mm 4 m/s 733 mmHg 58%
    05:00 +14°C° 0 mm 4 m/s 733 mmHg 66%
    06:00 +15°C° 0 mm 4 m/s 733 mmHg 68%
    07:00 +15°C° 0 mm 4 m/s 734 mmHg 70%
    08:00 +15°C° 0 mm 5 m/s 734 mmHg 72%
    09:00 +16°C° 0 mm 5 m/s 735 mmHg 65%
    10:00 +19°C° 0 mm 5 m/s 735 mmHg 57%
    11:00 +20°C° 0 mm 5 m/s 735 mmHg 50%
    12:00 +21°C° 0 mm 5 m/s 735 mmHg 47%
    13:00 +22°C° 0 mm 5 m/s 735 mmHg 43%
    14:00 +22°C° 0 mm 5 m/s 734 mmHg 40%
    15:00 +21°C° 0 mm 5 m/s 734 mmHg 44%
    16:00 +20°C° 0 mm 5 m/s 735 mmHg 48%
    17:00 +17°C° 0 mm 5 m/s 735 mmHg 53%
    18:00 +18°C° 0 mm 4 m/s 735 mmHg 55%
    19:00 +17°C° 0 mm 3 m/s 735 mmHg 56%
    20:00 +17°C° 0 mm 3 m/s 736 mmHg 58%
    21:00 +16°C° 0 mm 3 m/s 736 mmHg 58%
    22:00 +16°C° 0 mm 2 m/s 736 mmHg 59%
    23:00 +16°C° 0 mm 2 m/s 736 mmHg 60%

    Depois de amanhã, 24 Maio, Sexta-feira

    Tempo Temperatura Precipitação Vento Pressão Humidade
    00:00 +15°C° 0 mm 2 m/s 736 mmHg 62%
    01:00 +14°C° 0 mm 3 m/s 735 mmHg 64%
    02:00 +13°C° 0 mm 3 m/s 735 mmHg 66%
    03:00 +13°C° 0 mm 3 m/s 735 mmHg 69%
    04:00 +12°C° 0 mm 3 m/s 735 mmHg 71%
    05:00 +12°C° 0 mm 3 m/s 735 mmHg 73%
    06:00 +12°C° 0 mm 3 m/s 735 mmHg 71%
    07:00 +13°C° 0 mm 3 m/s 735 mmHg 69%
    08:00 +13°C° 0 mm 3 m/s 736 mmHg 67%
    09:00 +15°C° 0 mm 2 m/s 736 mmHg 60%
    10:00 +17°C° 0 mm 2 m/s 736 mmHg 53%
    11:00 +19°C° 0 mm 1 m/s 736 mmHg 46%
    12:00 +20°C° 0 mm 1 m/s 735 mmHg 43%
    13:00 +21°C° 0 mm 1 m/s 735 mmHg 39%
    14:00 +22°C° 0 mm 1 m/s 734 mmHg 35%
    15:00 +21°C° 0 mm 1 m/s 734 mmHg 36%
    16:00 +20°C° 0 mm 2 m/s 734 mmHg 36%
    17:00 +20°C° 0 mm 2 m/s 734 mmHg 36%
    18:00 +19°C° 0 mm 2 m/s 734 mmHg 38%
    19:00 +18°C° 0 mm 2 m/s 735 mmHg 40%
    20:00 +17°C° 0 mm 3 m/s 735 mmHg 42%
    21:00 +17°C° 0 mm 3 m/s 735 mmHg 45%
    22:00 +15°C° 0 mm 4 m/s 735 mmHg 48%
    23:00 +14°C° 0 mm 4 m/s 735 mmHg 50%

    25 Maio, Sábado

    Tempo Temperatura Precipitação Vento Pressão Humidade
    00:00 +14°C° 0 mm 4 m/s 735 mmHg 53%
    01:00 +13°C° 0 mm 4 m/s 735 mmHg 57%
    02:00 +13°C° 0 mm 3 m/s 735 mmHg 60%
    03:00 +12°C° 0 mm 3 m/s 734 mmHg 64%
    04:00 +12°C° 0 mm 3 m/s 734 mmHg 67%
    05:00 +11°C° 0 mm 3 m/s 734 mmHg 71%
    06:00 +12°C° 0 mm 3 m/s 735 mmHg 72%
    07:00 +12°C° 0 mm 3 m/s 735 mmHg 73%
    08:00 +12°C° 0 mm 3 m/s 736 mmHg 73%
    09:00 +14°C° 0 mm 3 m/s 736 mmHg 68%
    10:00 +16°C° 0 mm 3 m/s 736 mmHg 62%
    11:00 +18°C° 0 mm 2 m/s 736 mmHg 56%
    12:00 +18°C° 0 mm 2 m/s 735 mmHg 52%
    13:00 +19°C° 0 mm 3 m/s 734 mmHg 48%
    14:00 +20°C° 0 mm 3 m/s 734 mmHg 43%
    15:00 +19°C° 0 mm 3 m/s 734 mmHg 44%
    16:00 +19°C° 0 mm 3 m/s 734 mmHg 44%
    17:00 +19°C° 0 mm 3 m/s 734 mmHg 45%
    18:00 +18°C° 0 mm 3 m/s 735 mmHg 47%
    19:00 +17°C° 0 mm 3 m/s 735 mmHg 50%
    20:00 +16°C° 0 mm 3 m/s 736 mmHg 52%
    21:00 +15°C° 0 mm 4 m/s 736 mmHg 57%
    22:00 +14°C° 0 mm 4 m/s 736 mmHg 63%
    23:00 +13°C° 0 mm 5 m/s 736 mmHg 68%

    26 Maio, Domingo

    Tempo Temperatura Precipitação Vento Pressão Humidade
    00:00 +13°C° 0 mm 4 m/s 736 mmHg 73%
    01:00 +12°C° 0 mm 4 m/s 736 mmHg 78%
    02:00 +12°C° 0 mm 4 m/s 736 mmHg 83%
    03:00 +11°C° 0 mm 4 m/s 736 mmHg 85%
    04:00 +11°C° 0 mm 4 m/s 736 mmHg 86%
    05:00 +10°C° 0 mm 3 m/s 736 mmHg 88%
    06:00 +11°C° 0 mm 4 m/s 737 mmHg 86%
    07:00 +11°C° 0 mm 4 m/s 737 mmHg 84%
    08:00 +11°C° 0 mm 4 m/s 737 mmHg 81%
    09:00 +13°C° 0 mm 4 m/s 737 mmHg 74%
    10:00 +14°C° 0 mm 4 m/s 737 mmHg 67%
    11:00 +17°C° 0 mm 3 m/s 737 mmHg 61%
    12:00 +17°C° 0 mm 3 m/s 736 mmHg 56%
    13:00 +18°C° 0 mm 2 m/s 736 mmHg 52%
    14:00 +19°C° 0 mm 2 m/s 735 mmHg 48%
    15:00 +18°C° 0 mm 2 m/s 735 mmHg 48%
    16:00 +18°C° 0 mm 2 m/s 735 mmHg 49%
    17:00 +17°C° 0 mm 2 m/s 736 mmHg 49%
    18:00 +17°C° 0 mm 3 m/s 736 mmHg 51%
    19:00 +16°C° 0 mm 3 m/s 736 mmHg 53%
    20:00 +14°C° 0 mm 3 m/s 737 mmHg 55%
    21:00 +14°C° 0 mm 3 m/s 737 mmHg 56%
    22:00 +13°C° 0 mm 3 m/s 737 mmHg 57%
    23:00 +14°C° 0 mm 2 m/s 737 mmHg 58%

    27 Maio, Segunda-feira

    Tempo Temperatura Precipitação Vento Pressão Humidade
    00:00 +13°C° 0 mm 2 m/s 736 mmHg 59%
    01:00 +13°C° 0 mm 2 m/s 736 mmHg 60%
    02:00 +12°C° 0 mm 2 m/s 736 mmHg 62%
    03:00 +12°C° 0 mm 2 m/s 736 mmHg 63%
    04:00 +12°C° 0 mm 1 m/s 736 mmHg 65%
    05:00 +11°C° 0 mm 1 m/s 736 mmHg 67%
    06:00 +12°C° 0 mm 1 m/s 736 mmHg 64%
    07:00 +13°C° 0 mm 1 m/s 736 mmHg 62%
    08:00 +13°C° 0 mm 1 m/s 737 mmHg 59%
    09:00 +15°C° 0 mm 1 m/s 737 mmHg 55%
    10:00 +16°C° 0 mm 1 m/s 736 mmHg 51%
    11:00 +16°C° 0 mm 0 m/s 736 mmHg 47%
    12:00 +19°C° 0 mm 1 m/s 736 mmHg 43%
    13:00 +20°C° 0 mm 1 m/s 735 mmHg 39%
    14:00 +19°C° 0 mm 2 m/s 735 mmHg 35%
    15:00 +19°C° 0 mm 2 m/s 735 mmHg 35%
    16:00 +18°C° 0 mm 2 m/s 735 mmHg 35%
    17:00 +18°C° 0 mm 3 m/s 735 mmHg 35%
    18:00 +17°C° 0 mm 3 m/s 735 mmHg 38%
    19:00 +16°C° 0 mm 3 m/s 735 mmHg 40%
    20:00 +16°C° 0 mm 3 m/s 736 mmHg 43%
    21:00 +15°C° 0 mm 2 m/s 736 mmHg 45%
    22:00 +15°C° 0 mm 2 m/s 736 mmHg 48%
    23:00 +14°C° 0 mm 2 m/s 736 mmHg 50%
    Mostrar mais